GW0500 Weather Reports


time (UTC)temp
C
wind
direction
speed
KPH
gust
KPH
rain 1hr
cm
rain 24hr
cm
rain mn
cm
humidity
%
barometer
mb
20260903205547 23 153 3.2 12.9 0.00 0.00 0.00 36 1018.9
20260903205047 23 55 3.2 12.9 0.00 0.00 0.00 35 1018.9
20260903204603 23 140 3.2 12.9 0.00 0.00 0.00 35 1019.1
20260903204044 23 184 3.2 12.9 0.00 0.00 0.00 35 1019.1
20260903203544 23 138 3.2 16.1 0.00 0.00 0.00 35 1019.1
20260903203108 23 153 3.2 16.1 0.00 0.00 0.00 33 1019.0
20260903202544 23 288 3.2 14.5 0.00 0.00 0.00 31 1019.2
20260903202045 23 175 4.8 16.1 0.00 0.00 0.00 28 1019.3
20260903201602 23 148 1.6 17.7 0.00 0.00 0.00 27 1019.1
20260903201045 23 215 4.8 17.7 0.00 0.00 0.00 26 1019.3
20260903200545 23 148 3.2 14.5 0.00 0.00 0.00 27 1019.3
20260903200058 23 161 3.2 16.1 0.00 0.00 0.00 28 1019.2
20260903195543 23 116 3.2 16.1 0.00 0.00 0.00 28 1019.3
20260903195044 23 229 3.2 16.1 0.00 0.00 0.00 28 1019.3
20260903194600 23 106 4.8 16.1 0.00 0.00 0.00 27 1019.3
20260903194044 23 160 6.4 16.1 0.00 0.00 0.00 29 1019.2
20260903193545 23 217 4.8 27.4 0.00 0.00 0.00 28 1019.2
20260903193104 23 134 4.8 27.4 0.00 0.00 0.00 28 1019.3
20260903192546 23 130 3.2 17.7 0.00 0.00 0.00 27 1019.5
20260903192045 23 0 3.2 22.5 0.00 0.00 0.00 30 1019.4
20260903191559 22 274 3.2 22.5 0.00 0.00 0.00 26 1019.5
20260903191044 22 140 6.4 14.5 0.00 0.00 0.00 25 1019.6
20260903190548 22 97 4.8 14.5 0.00 0.00 0.00 27 1019.7
20260903190107 22 142 4.8 14.5 0.00 0.00 0.00 24 1019.8
20260903185544 22 207 3.2 14.5 0.00 0.00 0.00 26 1019.7
20260903185044 22 163 3.2 14.5 0.00 0.00 0.00 23 1019.8
20260903184605 22 69 4.8 14.5 0.00 0.00 0.00 26 1019.9
20260903184044 22 140 3.2 12.9 0.00 0.00 0.00 29 1019.9
20260903183544 22 210 1.6 14.5 0.00 0.00 0.00 26 1020.0
20260903183106 21 307 3.2 14.5 0.00 0.00 0.00 25 1020.0
20260903182544 21 221 3.2 12.9 0.00 0.00 0.00 27 1020.2
20260903182045 21 189 1.6 11.3 0.00 0.00 0.00 25 1020.0
20260903181604 21 0 1.6 11.3 0.00 0.00 0.00 26 1020.1
20260903181046 21 160 3.2 12.9 0.00 0.00 0.00 25 1020.2
20260903180545 20 150 4.8 12.9 0.00 0.00 0.00 25 1020.2
20260903180106 20 138 4.8 12.9 0.00 0.00 0.00 24 1020.2
20260903175545 21 139 1.6 9.7 0.00 0.00 0.00 23 1020.1
20260903175044 21 136 3.2 12.9 0.00 0.00 0.00 25 1020.1
20260903174604 21 179 3.2 12.9 0.00 0.00 0.00 22 1020.1
20260903174043 20 232 3.2 12.9 0.00 0.00 0.00 23 1020.2
20260903173549 20 161 3.2 12.9 0.00 0.00 0.00 25 1020.1
20260903173102 20 192 0.0 12.9 0.00 0.00 0.00 26 1020.0
20260903172544 20 223 3.2 11.3 0.00 0.00 0.00 26 1020.0
20260903172044 20 134 1.6 9.7 0.00 0.00 0.00 23 1020.0
20260903171607 20 161 1.6 11.3 0.00 0.00 0.00 26 1019.9
20260903171046 19 200 3.2 11.3 0.00 0.00 0.00 24 1020.0
20260903170546 19 160 1.6 9.7 0.00 0.00 0.00 24 1019.9
20260903170126 19 165 1.6 11.3 0.00 0.00 0.00 24 1019.9
20260903165547 19 173 1.6 11.3 0.00 0.00 0.00 28 1019.9
20260903165048 18 161 1.6 12.9 0.00 0.00 0.00 25 1019.8
20260903164559 18 0 3.2 12.9 0.00 0.00 0.00 24 1019.8
20260903164048 18 131 1.6 9.7 0.00 0.00 0.00 23 1019.7
20260903163548 18 128 1.6 9.7 0.00 0.00 0.00 22 1019.7
20260903163056 18 144 1.6 16.1 0.00 0.00 0.00 21 1019.7
20260903162547 18 0 1.6 16.1 0.00 0.00 0.00 19 1019.8
20260903162044 17 340 1.6 14.5 0.00 0.00 0.00 17 1019.8
20260903161604 17 0 1.6 14.5 0.00 0.00 0.00 19 1019.8
20260903161045 17 151 3.2 14.5 0.00 0.00 0.00 18 1019.7
20260903160545 17 184 1.6 9.7 0.00 0.00 0.00 21 1019.7
20260903160107 17 172 1.6 12.9 0.00 0.00 0.00 20 1019.6
20260903155548 16 142 3.2 12.9 0.00 0.00 0.00 20 1019.6
20260903155044 16 225 3.2 9.7 0.00 0.00 0.00 17 1019.5
20260903154607 15 220 0.0 8.0 0.00 0.00 0.00 19 1019.4
20260903154048 14 200 1.6 11.3 0.00 0.00 0.00 19 1019.4
20260903153548 13 0 1.6 11.3 0.00 0.00 0.00 19 1019.5
20260903153104 13 49 0.0 4.8 0.00 0.00 0.00 26 1019.6
20260903152550 12 0 0.0 4.8 0.00 0.00 0.00 27 1019.6
20260903152048 12 54 1.6 4.8 0.00 0.00 0.00 29 1019.5
20260903151559 12 50 1.6 4.8 0.00 0.00 0.00 31 1019.5
20260903151047 12 44 0.0 4.8 0.00 0.00 0.00 28 1019.5
20260903150548 11 41 1.6 4.8 0.00 0.00 0.00 30 1019.5
20260903150111 11 43 0.0 4.8 0.00 0.00 0.00 30 1019.5
20260903145547 11 0 0.0 3.2 0.00 0.00 0.00 31 1019.5
20260903145047 11 0 0.0 3.2 0.00 0.00 0.00 29 1019.5
20260903144625 11 0 0.0 1.6 0.00 0.00 0.00 27 1019.4
20260903144044 11 0 0.0 1.6 0.00 0.00 0.00 27 1019.4
20260903143549 10 0 0.0 0.0 0.00 0.00 0.00 27 1019.4
20260903143058 10 0 0.0 0.0 0.00 0.00 0.00 26 1019.3
20260903142545 10 0 0.0 0.0 0.00 0.00 0.00 26 1019.3
20260903142047 10 0 0.0 0.0 0.00 0.00 0.00 26 1019.2
20260903141604 10 0 0.0 0.0 0.00 0.00 0.00 26 1019.1
20260903141049 10 0 0.0 0.0 0.00 0.00 0.00 27 1019.1
20260903140548 10 0 0.0 0.0 0.00 0.00 0.00 27 1019.1
20260903140100 10 0 0.0 0.0 0.00 0.00 0.00 26 1019.0
20260903135547 10 0 0.0 1.6 0.00 0.00 0.00 26 1019.0
20260903135047 10 0 0.0 1.6 0.00 0.00 0.00 26 1018.9
20260903134633 10 0 0.0 0.0 0.00 0.00 0.00 26 1018.9
20260903134048 10 0 0.0 0.0 0.00 0.00 0.00 26 1018.9
20260903133551 10 0 0.0 0.0 0.00 0.00 0.00 26 1019.0
20260903133113 10 0 0.0 0.0 0.00 0.00 0.00 26 1018.9
20260903132548 10 0 0.0 0.0 0.00 0.00 0.00 26 1018.9
20260903132050 10 0 0.0 0.0 0.00 0.00 0.00 27 1019.0
20260903131615 10 0 0.0 0.0 0.00 0.00 0.00 27 1019.0
20260903131045 10 0 0.0 0.0 0.00 0.00 0.00 28 1019.0
20260903130545 10 0 0.0 0.0 0.00 0.00 0.00 28 1019.0
20260903130106 10 0 0.0 1.6 0.00 0.00 0.00 28 1018.9
20260903125546 10 0 0.0 1.6 0.00 0.00 0.00 26 1018.9
20260903125044 10 0 0.0 0.0 0.00 0.00 0.00 25 1019.0
20260903124603 10 0 0.0 0.0 0.00 0.00 0.00 25 1018.8
20260903124049 10 0 0.0 0.0 0.00 0.00 0.00 24 1018.8
20260903123548 10 0 0.0 0.0 0.00 0.00 0.00 24 1018.7
20260903123105 10 0 0.0 0.0 0.00 0.00 0.00 23 1018.8
20260903122547 10 0 0.0 0.0 0.00 0.00 0.00 24 1018.8
20260903122048 10 0 0.0 0.0 0.00 0.00 0.00 23 1018.8
20260903121603 10 0 0.0 1.6 0.00 0.00 0.00 22 1018.8
20260903121047 10 0 0.0 1.6 0.00 0.00 0.00 23 1018.7
20260903120544 10 22 0.0 1.6 0.00 0.00 0.00 23 1018.7
20260903120122 10 0 0.0 0.0 0.00 0.00 0.00 21 1018.7
20260903115548 10 0 0.0 0.0 0.00 0.00 0.00 22 1018.7
20260903115045 10 0 0.0 0.0 0.00 0.00 0.00 23 1018.7
20260903114604 10 0 0.0 0.0 0.00 0.00 0.00 24 1018.8
20260903114043 10 0 0.0 0.0 0.00 0.00 0.00 24 1018.8
20260903113546 11 0 0.0 0.0 0.00 0.00 0.00 24 1018.8
20260903113100 11 0 0.0 1.6 0.00 0.00 0.00 24 1018.8
20260903112545 11 0 0.0 3.2 0.00 0.00 0.00 24 1018.7
20260903112045 11 0 0.0 3.2 0.00 0.00 0.00 23 1018.7
20260903111559 11 22 0.0 1.6 0.00 0.00 0.00 22 1018.8
20260903111044 11 0 0.0 1.6 0.00 0.00 0.00 21 1018.9
20260903110544 11 0 0.0 1.6 0.00 0.00 0.00 22 1018.9
20260903110106 11 0 0.0 0.0 0.00 0.00 0.00 21 1019.0
20260903105549 11 0 0.0 0.0 0.00 0.00 0.00 21 1019.0
20260903105045 11 0 0.0 4.8 0.00 0.00 0.00 21 1018.9
20260903104620 11 0 0.0 4.8 0.00 0.00 0.00 22 1019.0
20260903104044 11 0 0.0 4.8 0.00 0.00 0.00 22 1018.9
20260903103548 11 0 0.0 4.8 0.00 0.00 0.00 21 1018.9
20260903103100 11 0 0.0 4.8 0.00 0.00 0.00 22 1018.9
20260903102548 11 360 0.0 1.6 0.00 0.00 0.00 21 1019.0
20260903102048 11 0 0.0 1.6 0.00 0.00 0.00 21 1019.1
20260903101605 11 0 0.0 0.0 0.00 0.00 0.00 19 1019.2
20260903101047 11 0 0.0 1.6 0.00 0.00 0.00 19 1019.3
20260903100546 11 0 0.0 1.6 0.00 0.00 0.00 19 1019.2
20260903095545 11 0 0.0 0.0 0.00 0.00 0.00 19 1019.3
20260903095047 11 0 0.0 4.8 0.00 0.00 0.00 20 1019.4
20260903094622 11 0 0.0 4.8 0.00 0.00 0.00 19 1019.4
20260903094048 11 302 0.0 3.2 0.00 0.00 0.00 21 1019.5
20260903093547 11 302 0.0 3.2 0.00 0.00 0.00 20 1019.5
20260903093058 11 0 0.0 3.2 0.00 0.00 0.00 20 1019.6
20260903092552 11 0 0.0 3.2 0.00 0.00 0.00 23 1019.5
20260903092049 11 0 0.0 4.8 0.00 0.00 0.00 21 1019.6
20260903091615 11 0 0.0 4.8 0.00 0.00 0.00 21 1019.6
20260903091047 11 0 0.0 4.8 0.00 0.00 0.00 25 1019.6
20260903090544 11 0 0.0 3.2 0.00 0.00 0.00 25 1019.7
20260903090059 11 0 0.0 3.2 0.00 0.00 0.00 26 1019.7
20260903085545 10 0 0.0 3.2 0.00 0.00 0.00 28 1019.8
20260903085045 10 0 0.0 3.2 0.00 0.00 0.00 28 1019.9
20260903084602 10 0 0.0 3.2 0.00 0.00 0.00 26 1019.9
20260903084045 10 352 0.0 3.2 0.00 0.00 0.00 25 1020.0
20260903083548 10 0 0.0 3.2 0.00 0.00 0.00 25 1020.2
20260903083103 10 0 0.0 0.0 0.00 0.00 0.00 26 1020.2
20260903082544 10 0 0.0 1.6 0.00 0.00 0.00 28 1020.3
20260903082044 10 0 0.0 1.6 0.00 0.00 0.00 32 1020.3
20260903081559 10 0 0.0 1.6 0.00 0.00 0.00 37 1020.4
20260903081047 10 0 0.0 0.0 0.00 0.00 0.00 38 1020.5
20260903080545 11 0 0.0 0.0 0.00 0.00 0.00 37 1020.5
20260903080105 11 0 0.0 0.0 0.00 0.00 0.00 39 1020.5
20260903075545 11 0 0.0 1.6 0.00 0.00 0.00 41 1020.5
20260903075044 11 0 0.0 1.6 0.00 0.00 0.00 43 1020.5
20260903074606 11 0 0.0 0.0 0.00 0.00 0.00 43 1020.4
20260903074045 11 0 0.0 0.0 0.00 0.00 0.00 43 1020.5
20260903073548 11 0 0.0 0.0 0.00 0.00 0.00 45 1020.5
20260903073100 11 0 0.0 0.0 0.00 0.00 0.00 46 1020.5
20260903072545 11 0 0.0 0.0 0.00 0.00 0.00 46 1020.5
20260903072045 11 0 0.0 1.6 0.00 0.00 0.00 45 1020.5
20260903071619 11 0 0.0 1.6 0.00 0.00 0.00 46 1020.5
20260903071047 11 0 0.0 0.0 0.00 0.00 0.00 46 1020.4
20260903070545 11 0 0.0 0.0 0.00 0.00 0.00 45 1020.3
20260903065549 12 0 0.0 1.6 0.00 0.00 0.00 42 1020.3
20260903065044 12 0 0.0 1.6 0.00 0.00 0.00 40 1020.3
20260903064600 12 0 0.0 1.6 0.00 0.00 0.00 41 1020.3
20260903064048 12 0 0.0 0.0 0.00 0.00 0.00 39 1020.3
20260903063548 12 0 0.0 1.6 0.00 0.00 0.00 36 1020.3
20260903063110 12 0 0.0 4.8 0.00 0.00 0.00 38 1020.3
20260903062547 12 0 0.0 4.8 0.00 0.00 0.00 38 1020.3
20260903062045 12 0 1.6 4.8 0.00 0.00 0.00 38 1020.2
20260903061558 12 17 0.0 1.6 0.00 0.00 0.00 37 1020.2
20260903061044 12 0 0.0 3.2 0.00 0.00 0.00 37 1020.2
20260903060548 12 0 0.0 3.2 0.00 0.00 0.00 40 1020.3
20260903060103 12 0 0.0 3.2 0.00 0.00 0.00 37 1020.3
20260903055547 12 0 0.0 3.2 0.00 0.00 0.00 37 1020.3
20260903055045 12 0 0.0 3.2 0.00 0.00 0.00 37 1020.2
20260903054558 13 0 0.0 4.8 0.00 0.00 0.00 35 1020.2
20260903054047 13 26 0.0 4.8 0.00 0.00 0.00 36 1020.3
20260903053547 13 0 0.0 3.2 0.00 0.00 0.00 36 1020.4
20260903053114 13 315 0.0 3.2 0.00 0.00 0.00 36 1020.3
20260903052545 13 0 0.0 3.2 0.00 0.00 0.00 38 1020.4
20260903052046 13 81 0.0 3.2 0.00 0.00 0.00 37 1020.5
20260903051601 13 0 0.0 1.6 0.00 0.00 0.00 35 1020.5
20260903051046 13 0 0.0 3.2 0.00 0.00 0.00 36 1020.5
20260903050549 13 0 0.0 4.8 0.00 0.00 0.00 35 1020.4
20260903050107 13 277 0.0 4.8 0.00 0.00 0.00 35 1020.5
20260903045544 13 0 0.0 3.2 0.00 0.00 0.00 36 1020.6
20260903045045 13 0 0.0 3.2 0.00 0.00 0.00 37 1020.6
20260903044604 13 0 0.0 3.2 0.00 0.00 0.00 38 1020.6
20260903044047 13 335 0.0 3.2 0.00 0.00 0.00 42 1020.5
20260903043545 13 157 0.0 0.0 0.00 0.00 0.00 45 1020.5
20260903043114 13 0 0.0 0.0 0.00 0.00 0.00 47 1020.5
20260903042548 12 0 0.0 1.6 0.00 0.00 0.00 48 1020.5
20260903042049 12 0 0.0 1.6 0.00 0.00 0.00 52 1020.5
20260903041603 12 0 0.0 0.0 0.00 0.00 0.00 53 1020.6
20260903041047 12 0 0.0 0.0 0.00 0.00 0.00 54 1020.6
20260903040544 12 0 0.0 0.0 0.00 0.00 0.00 51 1020.6
20260903040100 12 0 0.0 1.6 0.00 0.00 0.00 51 1020.6
20260903035545 13 0 0.0 1.6 0.00 0.00 0.00 51 1020.5
20260903035045 13 0 0.0 0.0 0.00 0.00 0.00 53 1020.4
20260903034608 13 0 0.0 3.2 0.00 0.00 0.00 55 1020.3
20260903034045 13 0 0.0 3.2 0.00 0.00 0.00 59 1020.4
20260903033545 13 92 0.0 1.6 0.00 0.00 0.00 60 1020.3
20260903033100 13 0 0.0 1.6 0.00 0.00 0.00 61 1020.4
20260903032546 14 0 0.0 1.6 0.00 0.00 0.00 63 1020.4
20260903032048 14 0 0.0 1.6 0.00 0.00 0.00 64 1020.3
20260903031623 14 0 0.0 0.0 0.00 0.00 0.00 64 1020.3
20260903031045 15 0 0.0 0.0 0.00 0.00 0.00 65 1020.2
20260903030545 15 0 0.0 0.0 0.00 0.00 0.00 63 1020.3
20260903025544 15 0 0.0 0.0 0.00 0.00 0.00 60 1020.2
20260903025047 16 0 0.0 3.2 0.00 0.00 0.00 60 1020.2
20260903024602 16 0 0.0 6.4 0.00 0.00 0.00 62 1020.2
20260903024045 16 0 0.0 6.4 0.00 0.00 0.00 65 1020.2
20260903023549 16 0 0.0 8.0 0.00 0.00 0.00 63 1020.2
20260903023101 17 0 1.6 9.7 0.00 0.00 0.00 63 1020.2
20260903022546 17 0 0.0 9.7 0.00 0.00 0.00 61 1020.1
20260903022045 17 0 1.6 9.7 0.00 0.00 0.00 61 1020.2
20260903021559 17 0 0.0 8.0 0.00 0.00 0.00 60 1020.2
20260903021045 17 0 1.6 8.0 0.00 0.00 0.00 59 1020.1
20260903020544 17 196 1.6 6.4 0.00 0.00 0.00 59 1020.2
20260903020059 18 0 0.0 6.4 0.00 0.00 0.00 57 1020.2
20260903015545 18 151 0.0 4.8 0.00 0.00 0.00 55 1020.1
20260903015043 18 151 0.0 1.6 0.00 0.00 0.00 54 1020.2
20260903014605 18 0 0.0 6.4 0.00 0.00 0.00 54 1020.2
20260903014044 18 0 0.0 8.0 0.00 0.00 0.00 53 1020.2
20260903013545 18 187 0.0 8.0 0.00 0.00 0.00 53 1020.2
20260903013059 18 216 0.0 8.0 0.00 0.00 0.00 52 1020.2
20260903012543 18 188 0.0 8.0 0.00 0.00 0.00 51 1020.3
20260903012043 19 192 1.6 8.0 0.00 0.00 0.00 50 1020.3
20260903011602 19 146 0.0 8.0 0.00 0.00 0.00 50 1020.3
20260903011045 19 0 0.0 11.3 0.00 0.00 0.00 49 1020.4
20260903010545 20 0 1.6 14.5 0.00 0.00 0.00 49 1020.3
20260903010106 20 0 0.0 14.5 0.00 0.00 0.00 49 1020.3
20260903005628 20 0 3.2 17.7 0.00 0.00 0.00 49 1020.3
20260903005545 20 0 3.2 17.7 0.00 0.00 0.00 49 1020.3
20260903005044 20 189 3.2 17.7 0.00 0.00 0.00 47 1020.3
20260903004601 20 158 0.0 16.1 0.00 0.00 0.00 46 1020.4
20260903004045 21 157 3.2 17.7 0.00 0.00 0.00 45 1020.3
20260903003548 21 155 3.2 17.7 0.00 0.00 0.00 43 1020.3
20260903003102 21 181 1.6 11.3 0.00 0.00 0.00 44 1020.3
20260903002547 21 198 3.2 11.3 0.00 0.00 0.00 43 1020.3
20260903002048 21 0 3.2 11.3 0.00 0.00 0.00 44 1020.2
20260903001611 21 0 3.2 12.9 0.00 0.00 0.00 41 1020.3
20260903001051 22 300 3.2 12.9 0.00 0.00 0.00 41 1020.4
20260903000619 22 163 3.2 12.9 0.00 0.00 0.00 38 1020.3
20260903000547 22 163 3.2 12.9 0.00 0.00 0.00 38 1020.3
20260903000103 22 107 3.2 14.5 0.00 0.00 0.00 39 1020.4
20260902235545 22 137 1.6 16.1 0.00 0.00 0.00 39 1020.3
20260902235047 22 54 4.8 16.1 0.00 0.00 0.00 39 1020.4
20260902234600 22 157 3.2 22.5 0.00 0.00 0.00 39 1020.4
20260902234049 22 151 3.2 24.1 0.00 0.00 0.00 39 1020.3
20260902233545 23 153 4.8 24.1 0.00 0.00 0.00 38 1020.4
20260902233103 23 173 1.6 20.9 0.00 0.00 0.00 38 1020.4
20260902232547 23 211 4.8 17.7 0.00 0.00 0.00 38 1020.5
20260902232045 23 167 6.4 17.7 0.00 0.00 0.00 39 1020.4
20260902231604 23 138 1.6 16.1 0.00 0.00 0.00 41 1020.3
20260902231045 23 171 4.8 16.1 0.00 0.00 0.00 40 1020.6
20260902230548 23 111 3.2 17.7 0.00 0.00 0.00 40 1020.5
20260902225545 23 237 4.8 12.9 0.00 0.00 0.00 40 1020.6
20260902225046 23 151 4.8 19.3 0.00 0.00 0.00 39 1020.8
20260902224611 24 214 4.8 19.3 0.00 0.00 0.00 38 1020.8
20260902224047 24 122 8.0 19.3 0.00 0.00 0.00 37 1020.7
20260902223548 25 189 1.6 19.3 0.00 0.00 0.00 38 1020.6
20260902223102 25 111 4.8 19.3 0.00 0.00 0.00 36 1020.6
20260902222551 25 141 3.2 19.3 0.00 0.00 0.00 35 1020.7
20260902222047 25 305 1.6 20.9 0.00 0.00 0.00 30 1020.6
20260902221609 25 118 4.8 20.9 0.00 0.00 0.00 29 1020.8
20260902221046 25 63 4.8 19.3 0.00 0.00 0.00 25 1020.8
20260902220544 25 161 4.8 19.3 0.00 0.00 0.00 25 1020.8
20260902220104 25 306 4.8 19.3 0.00 0.00 0.00 21 1020.9
20260902215547 25 96 3.2 19.3 0.00 0.00 0.00 21 1021.1
20260902215047 25 141 6.4 19.3 0.00 0.00 0.00 21 1021.0
20260902214607 25 167 3.2 14.5 0.00 0.00 0.00 19 1021.0
20260902214048 25 120 3.2 14.5 0.00 0.00 0.00 18 1021.1
20260902213551 25 126 4.8 14.5 0.00 0.00 0.00 19 1021.2
20260902213059 25 136 4.8 14.5 0.00 0.00 0.00 18 1021.3
20260902212547 25 157 4.8 16.1 0.00 0.00 0.00 18 1021.4
20260902212044 25 175 1.6 16.1 0.00 0.00 0.00 17 1021.6
20260902211617 25 227 4.8 16.1 0.00 0.00 0.00 18 1021.5
20260902211045 25 221 3.2 11.3 0.00 0.00 0.00 16 1021.7
20260902210545 25 225 1.6 11.3 0.00 0.00 0.00 20 1021.5
20260902210119 25 144 1.6 14.5 0.00 0.00 0.00 17 1021.6